User: anonymous   Login
Location: Lafig�re
(44.4503°N, 4.0357°E)
Time: 22:22:45
(UTC+00:00)
Language:

USA 186 - Orbit

View from above orbital plane
View from above orbital plane
View from above satellite
View from above satellite

Ground track
Ground track

The orbit data is extracted from the following two-line orbital elements,

1 28888U 05042A   20286.79196146 0.00016500  00000-0  66574-4 0    03
2 28888  96.8652 322.8211 0122309 179.1469 180.8530 15.75519057    05
Epoch (UTC): 12 October 2020 19:00:25
Eccentricity: 0.0122309
inclination: 96.8652°
perigee height: 261 km
apogee height: 425 km
right ascension of ascending node: 322.8211°
argument of perigee: 179.1469°
revolutions per day: 15.75519057
mean anomaly at epoch: 180.8530°
orbit number at epoch: 0

The dashed part of the orbit path shows where the satellite is in the earth's shadow,  

DLR